This demonstration page uses our WeatherBlox Daily Observations layout. Learn more.

Left ArrowRight Arrow

Hourly Observations for May 5, 2015

Temp ( °F °C ) Dew Point ( °F °C ) Humidity (%) Winds ( mph kmh ) Pressure ( in mb ) Visibility ( mi km ) Precip ( " mm )
12:53 am 00:53 Clear 63 17.2 50 10 63 63 E 3 6 29.85 1011 10 16 0.00 0.00
1:53 am 01:53 Clear 61 16.1 49 9.4 65 65 SE 8 13 29.85 1011 10 16 0.00 0.00
2:53 am 02:53 Clear 64 17.8 49 9.4 58 58 S 13 20 29.85 1011 10 16 0.00 0.00
3:53 am 03:53 Clear 61 16.1 49 9.4 65 65 Calm 29.85 1011 10 16 0.00 0.00
4:53 am 04:53 Clear 56 13.3 48 8.9 75 75 Calm 29.87 1011 10 16 0.00 0.00
5:53 am 05:53 Clear 57 13.9 49 9.4 74 74 S 3 6 29.88 1012 10 16 0.00 0.00
6:53 am 06:53 Sunny 55 12.8 48 8.9 77 77 NNE 3 6 29.90 1012 10 16 0.00 0.00
7:53 am 07:53 Sunny 59 15 50 10 72 72 ESE 3 6 29.91 1013 10 16 0.00 0.00
8:53 am 08:53 Sunny 62 16.7 50 10 65 65 S 3 6 29.91 1013 10 16 0.00 0.00
9:53 am 09:53 Sunny 66 18.9 49 9.4 54 54 ESE 3 6 29.90 1012 10 16 0.00 0.00
10:53 am 10:53 Sunny 71 21.7 48 8.9 44 44 N 3 6 29.88 1012 10 16 0.00 0.00
11:53 am 11:53 Sunny 74 23.3 47 8.3 38 38 VRB 3 6 29.86 1011 10 16 0.00 0.00
12:53 pm 12:53 Sunny 77 25 47 8.3 35 35 VRB 6 9 29.84 1011 10 16 0.00 0.00
1:53 pm 13:53 Sunny 79 26.1 43 6.1 28 28 S 6 9 29.82 1010 10 16 0.00 0.00
2:53 pm 14:53 Sunny 82 27.8 37 2.8 20 20 NW 3 6 29.79 1009 10 16 0.00 0.00
3:53 pm 15:53 Sunny 82 27.8 39 3.9 22 22 S 10 17 29.77 1008 10 16 0.00 0.00
4:53 pm 16:53 Sunny 83 28.3 31 -0.6 15 15 SSE 9 15 29.75 1008 10 16 0.00 0.00
5:53 pm 17:53 Sunny 82 27.8 40 4.4 22 22 S 13 20 29.74 1007 10 16 0.00 0.00
6:53 pm 18:53 Sunny 81 27.2 41 5 24 24 S 10 17 29.74 1007 10 16 0.00 0.00
7:53 pm 19:53 Sunny 76 24.4 45 7.2 33 33 S 8 13 29.75 1007 10 16 0.00 0.00
8:53 pm 20:53 Clear 72 22.2 50 10 46 46 S 8 13 29.77 1008 10 16 0.00 0.00
9:53 pm 21:53 Clear 70 21.1 43 6.1 38 38 W 5 7 29.79 1009 10 16 0.00 0.00
10:53 pm 22:53 Clear 69 20.6 37 2.8 31 31 W 7 11 29.79 1009 10 16 0.00 0.00
11:53 pm 23:53 Clear 67 19.4 43 6.1 42 42 NNW 6 9 29.81 1010 10 16 0.00 0.00

Powered by AerisWeather